DW6757 Weather Reports


time (UTC)temp
C
wind
direction
speed
KPH
gust
KPH
rain 1hr
cm
rain 24hr
cm
rain mn
cm
humidity
%
barometer
mb
20260506103504 23 184 1.6 6.4 0.00 0.00 0.00 92 1007.9
20260506103025 23 188 1.6 6.4 0.00 0.00 0.00 92 1007.8
20260506102504 23 194 1.6 4.8 0.00 0.00 0.00 92 1007.7
20260506102004 23 187 3.2 9.7 0.00 0.00 0.00 91 1007.8
20260506101504 23 177 4.8 9.7 0.00 0.00 0.00 91 1007.8
20260506101025 23 173 4.8 9.7 0.00 0.00 0.00 91 1007.8
20260506100504 23 177 6.4 14.5 0.00 0.00 0.00 91 1007.7
20260506100004 23 181 6.4 14.5 0.00 0.00 0.00 91 1007.6
20260506095504 23 183 6.4 12.9 0.00 0.00 0.00 91 1007.7
20260506095004 23 177 4.8 11.3 0.00 0.00 0.00 91 1007.7
20260506094503 23 171 4.8 12.9 0.00 0.00 0.00 91 1007.6
20260506094004 23 171 6.4 12.9 0.00 0.00 0.00 91 1007.6
20260506093504 23 174 6.4 11.3 0.00 0.00 0.00 91 1007.6
20260506093004 23 173 6.4 11.3 0.00 0.00 0.00 91 1007.6
20260506092504 23 169 4.8 11.3 0.00 0.00 0.00 90 1007.6
20260506092004 23 169 6.4 12.9 0.00 0.00 0.00 90 1007.7
20260506091525 23 167 6.4 12.9 0.00 0.00 0.00 90 1007.7
20260506091025 23 172 6.4 11.3 0.00 0.00 0.00 90 1007.8
20260506090504 23 177 4.8 11.3 0.00 0.00 0.00 90 1007.8
20260506090004 23 170 4.8 11.3 0.00 0.00 0.00 90 1007.7
20260506085504 23 169 4.8 11.3 0.00 0.00 0.00 90 1007.8
20260506085004 23 173 4.8 9.7 0.00 0.00 0.00 90 1007.7
20260506084525 23 174 4.8 9.7 0.00 0.00 0.00 89 1007.8
20260506084004 24 169 4.8 9.7 0.00 0.00 0.00 89 1007.8
20260506083525 24 165 4.8 14.5 0.00 0.00 0.00 89 1007.8
20260506083025 24 165 4.8 14.5 0.00 0.00 0.00 89 1007.6
20260506082525 24 167 4.8 9.7 0.00 0.00 0.00 89 1007.7
20260506082004 24 171 4.8 9.7 0.00 0.00 0.00 89 1007.7
20260506081505 24 177 6.4 11.3 0.00 0.00 0.00 89 1007.7
20260506081004 24 177 6.4 14.5 0.00 0.00 0.00 89 1007.6
20260506080504 24 178 6.4 14.5 0.00 0.00 0.00 89 1007.5
20260506073504 24 169 6.4 14.5 0.00 0.00 0.00 87 1008.0
20260506073004 24 166 4.8 11.3 0.00 0.00 0.00 88 1008.0
20260506072504 24 167 6.4 12.9 0.00 0.00 0.00 88 1007.9
20260506072004 24 163 6.4 12.9 0.00 0.00 0.00 87 1008.1
20260506071504 24 164 8.0 12.9 0.00 0.00 0.00 88 1008.1
20260506071004 24 166 6.4 12.9 0.00 0.00 0.00 88 1008.1
20260506070504 24 164 6.4 12.9 0.00 0.00 0.00 88 1008.1
20260506062504 24 167 9.7 22.5 0.00 0.00 0.00 88 1008.1
20260506062004 24 164 9.7 22.5 0.00 0.00 0.00 88 1008.1
20260506061504 24 161 8.0 17.7 0.00 0.00 0.00 88 1008.2
20260506061004 24 168 8.0 14.5 0.00 0.00 0.00 89 1008.2
20260506060504 24 164 8.0 14.5 0.00 0.00 0.00 89 1008.2
20260506051024 25 154 8.0 16.1 0.00 0.00 0.00 87 1008.1
20260506050503 25 157 8.0 22.5 0.00 0.00 0.00 87 1008.0
20260506045004 25 156 6.4 14.5 0.00 0.00 0.00 87 1008.2
20260506044504 25 155 6.4 14.5 0.00 0.00 0.00 87 1008.3
20260506044004 24 150 6.4 11.3 0.00 0.00 0.00 87 1008.2
20260506043503 24 146 6.4 14.5 0.00 0.00 0.00 87 1008.3
20260506043004 25 151 8.0 14.5 0.00 0.00 0.00 87 1008.3
20260506042504 25 149 8.0 12.9 0.00 0.00 0.00 87 1008.1
20260506042003 25 143 8.0 14.5 0.00 0.00 0.00 87 1008.0
20260506041503 25 144 8.0 16.1 0.00 0.00 0.00 87 1008.1
20260506041004 25 146 6.4 16.1 0.00 0.00 0.00 87 1008.1
20260506040503 25 152 6.4 17.7 0.00 0.00 0.00 87 1008.1
20260506040004 25 147 8.0 17.7 0.00 0.00 0.00 86 1008.0
20260506035504 25 145 8.0 16.1 0.00 0.00 0.00 86 1007.9
20260506035004 25 147 9.7 16.1 0.00 0.00 0.00 86 1007.7
20260506034504 25 146 9.7 17.7 0.00 0.00 0.00 86 1007.8
20260506034003 25 146 9.7 17.7 0.00 0.00 0.00 86 1007.6
20260506033503 25 149 9.7 22.5 0.00 0.00 0.00 86 1007.5
20260506033025 25 150 9.7 22.5 0.00 0.00 0.00 86 1007.5
20260506032503 25 147 9.7 16.1 0.00 0.00 0.00 86 1007.4
20260506032004 25 148 9.7 19.3 0.00 0.00 0.00 85 1007.5
20260506031504 25 146 9.7 19.3 0.00 0.00 0.00 85 1007.4
20260506031003 25 145 8.0 19.3 0.00 0.00 0.00 85 1007.3
20260506030503 25 147 8.0 14.5 0.00 0.00 0.00 85 1007.3
20260506030005 25 149 8.0 14.5 0.00 0.00 0.00 84 1007.2
20260506025525 25 148 8.0 14.5 0.00 0.00 0.00 84 1007.2
20260506025004 25 146 8.0 14.5 0.00 0.00 0.00 84 1007.2
20260506024504 26 144 8.0 12.9 0.00 0.00 0.00 84 1007.1
20260506024003 26 146 6.4 11.3 0.00 0.00 0.00 83 1007.0
20260506023525 26 152 6.4 14.5 0.00 0.00 0.00 83 1007.1
20260506023004 26 151 8.0 17.7 0.00 0.00 0.00 83 1007.1
20260506022503 26 148 8.0 17.7 0.00 0.00 0.00 83 1006.9
20260506022004 26 144 6.4 17.7 0.00 0.00 0.00 83 1006.6
20260506021504 26 136 4.8 9.7 0.00 0.00 0.00 83 1006.6
20260506021004 26 137 4.8 12.9 0.00 0.00 0.00 83 1006.5
20260506020503 26 138 6.4 16.1 0.00 0.00 0.00 82 1006.4
20260506020004 26 137 6.4 16.1 0.00 0.00 0.00 82 1006.4
20260506015524 26 134 6.4 12.9 0.00 0.00 0.00 81 1006.5
20260506015003 26 134 6.4 14.5 0.00 0.00 0.00 81 1006.4
20260506014504 26 133 6.4 14.5 0.00 0.00 0.00 80 1006.4
20260506014003 27 139 6.4 14.5 0.00 0.00 0.00 80 1006.3
20260506013504 27 141 6.4 14.5 0.00 0.00 0.00 80 1006.3
20260506013003 27 129 4.8 9.7 0.00 0.00 0.00 80 1006.2
20260506012505 27 135 4.8 12.9 0.00 0.00 0.00 79 1006.1
20260506012026 27 140 6.4 16.1 0.00 0.00 0.00 79 1006.1
20260506011505 27 139 6.4 16.1 0.00 0.00 0.00 79 1006.0
20260506011026 27 132 4.8 11.3 0.00 0.00 0.00 79 1006.0
20260506010505 27 130 4.8 16.1 0.00 0.00 0.00 78 1005.9
20260506010005 27 128 4.8 16.1 0.00 0.00 0.00 78 1005.8
20260506005526 27 127 4.8 11.3 0.00 0.00 0.00 77 1005.8
20260506005005 28 129 4.8 11.3 0.00 0.00 0.00 77 1005.7
20260506004505 28 121 4.8 11.3 0.00 0.00 0.00 76 1005.7
20260506004005 28 114 3.2 11.3 0.00 0.00 0.00 75 1005.6
20260506003527 28 103 3.2 8.0 0.00 0.00 0.00 75 1005.6
20260506003005 28 118 3.2 8.0 0.00 0.00 0.00 74 1005.6
20260506002504 28 136 3.2 9.7 0.00 0.00 0.00 74 1005.5
20260506002004 28 144 4.8 11.3 0.00 0.00 0.00 73 1005.5
20260506001504 28 144 4.8 11.3 0.00 0.00 0.00 73 1005.4
20260506001005 28 140 4.8 12.9 0.00 0.00 0.00 72 1005.5
20260506000505 28 136 4.8 12.9 0.00 0.00 0.00 72 1005.4
20260506000004 29 134 4.8 11.3 0.00 0.00 0.00 71 1005.2
20260505235505 29 139 6.4 12.9 0.00 0.00 0.00 72 1005.2
20260505235025 29 141 6.4 12.9 0.00 0.00 0.00 72 1005.1
20260505234505 29 141 6.4 11.3 0.00 0.00 0.00 71 1005.0
20260505234026 29 142 6.4 11.3 0.00 0.00 0.00 71 1005.1
20260505233526 29 147 6.4 11.3 0.00 0.00 0.00 71 1005.1
20260505233005 29 153 6.4 11.3 0.00 0.00 0.00 71 1005.2
20260505232505 29 151 8.0 14.5 0.00 0.00 0.00 71 1005.1
20260505232004 30 142 8.0 14.5 0.00 0.00 0.00 70 1005.2
20260505231505 30 139 6.4 14.5 0.00 0.00 0.00 70 1005.2
20260505231005 30 159 8.0 14.5 0.00 0.00 0.00 69 1005.2
20260505230505 30 160 9.7 14.5 0.00 0.00 0.00 69 1005.2
20260505230026 30 150 8.0 14.5 0.00 0.00 0.00 69 1005.1
20260505225505 30 154 8.0 14.5 0.00 0.00 0.00 69 1005.1
20260505225005 30 155 8.0 17.7 0.00 0.00 0.00 72 1005.1
20260505224505 29 141 8.0 17.7 0.00 0.00 0.00 71 1005.2
20260505224026 29 136 8.0 16.1 0.00 0.00 0.00 71 1005.2
20260505223505 29 138 8.0 14.5 0.00 0.00 0.00 71 1005.3
20260505223005 30 138 6.4 16.1 0.00 0.00 0.00 71 1005.3
20260505222505 30 138 6.4 16.1 0.00 0.00 0.00 70 1005.4
20260505222005 30 145 6.4 14.5 0.00 0.00 0.00 70 1005.5
20260505221504 30 145 6.4 14.5 0.00 0.00 0.00 72 1005.4
20260505221005 29 143 6.4 14.5 0.00 0.00 0.00 71 1005.4
20260505220505 29 143 6.4 12.9 0.00 0.00 0.00 72 1005.5
20260505220005 30 159 8.0 14.5 0.00 0.00 0.00 71 1005.4
20260505215505 30 164 8.0 14.5 0.00 0.00 0.00 70 1005.4
20260505215004 30 166 9.7 19.3 0.00 0.00 0.00 68 1005.6
20260505214504 30 180 8.0 19.3 0.00 0.00 0.00 67 1005.6
20260505214005 30 192 8.0 14.5 0.00 0.00 0.00 69 1005.7
20260505213504 30 186 8.0 14.5 0.00 0.00 0.00 70 1005.8
20260505213005 30 176 6.4 12.9 0.00 0.00 0.00 70 1005.9
20260505212505 30 190 8.0 17.7 0.00 0.00 0.00 70 1005.9
20260505212004 30 190 8.0 17.7 0.00 0.00 0.00 70 1006.0
20260505211504 29 178 6.4 16.1 0.00 0.00 0.00 70 1006.1
20260505211004 29 162 6.4 16.1 0.00 0.00 0.00 70 1006.1
20260505210504 29 141 6.4 12.9 0.00 0.00 0.00 71 1006.1
20260505210005 29 155 6.4 14.5 0.00 0.00 0.00 72 1006.3
20260505205525 28 162 6.4 14.5 0.00 0.00 0.00 72 1006.2
20260505205004 28 173 6.4 14.5 0.00 0.00 0.00 72 1006.4
20260505204505 28 180 6.4 16.1 0.00 0.00 0.00 72 1006.6
20260505204025 28 175 8.0 16.1 0.00 0.00 0.00 71 1006.6
20260505203505 29 165 8.0 16.1 0.00 0.00 0.00 71 1006.7
20260505203004 29 165 8.0 14.5 0.00 0.00 0.00 73 1006.7
20260505202506 28 173 6.4 14.5 0.00 0.00 0.00 73 1006.7
20260505202006 28 178 8.0 16.1 0.00 0.00 0.00 73 1006.9
20260505201504 28 183 9.7 19.3 0.00 0.00 0.00 72 1007.0
20260505201005 28 183 9.7 19.3 0.00 0.00 0.00 72 1007.0
20260505200505 28 179 9.7 17.7 0.00 0.00 0.00 73 1007.0
20260505200005 28 180 9.7 17.7 0.00 0.00 0.00 74 1007.1
20260505195504 28 184 9.7 17.7 0.00 0.00 0.00 73 1007.1
20260505195005 28 174 8.0 17.7 0.00 0.00 0.00 74 1007.1
20260505194505 28 157 6.4 16.1 0.00 0.00 0.00 74 1007.2
20260505194026 28 173 8.0 16.1 0.00 0.00 0.00 74 1007.3
20260505193505 28 189 8.0 14.5 0.00 0.00 0.00 75 1007.4
20260505193005 28 187 8.0 14.5 0.00 0.00 0.00 73 1007.5
20260505192504 28 198 8.0 14.5 0.00 0.00 0.00 76 1007.6
20260505192026 27 210 6.4 14.5 0.00 0.00 0.00 75 1007.7
20260505191504 27 200 6.4 14.5 0.00 0.00 0.00 76 1008.0
20260505191004 27 183 8.0 14.5 0.00 0.00 0.00 76 1008.1
20260505190527 27 185 8.0 14.5 0.00 0.00 0.00 75 1008.0
20260505190025 27 196 8.0 16.1 0.00 0.00 0.00 75 1008.0
20260505185504 27 205 9.7 16.1 0.00 0.00 0.00 76 1008.2
20260505185004 27 203 9.7 17.7 0.00 0.00 0.00 77 1008.1
20260505184505 27 199 8.0 17.7 0.00 0.00 0.00 76 1008.3
20260505184004 26 201 8.0 14.5 0.00 0.00 0.00 78 1008.4
20260505183504 26 191 9.7 17.7 0.00 0.00 0.00 78 1008.4
20260505183025 26 184 9.7 17.7 0.00 0.00 0.00 77 1008.5
20260505182505 26 191 8.0 16.1 0.00 0.00 0.00 79 1008.4
20260505182005 26 193 8.0 16.1 0.00 0.00 0.00 80 1008.4
20260505181505 26 195 8.0 16.1 0.00 0.00 0.00 80 1008.5
20260505181004 26 183 8.0 16.1 0.00 0.00 0.00 82 1008.5
20260505180505 26 168 6.4 14.5 0.00 0.00 0.00 82 1008.5
20260505180004 25 178 6.4 14.5 0.00 0.00 0.00 82 1008.6
20260505175525 25 192 6.4 12.9 0.00 0.00 0.00 82 1008.6
20260505175005 25 191 6.4 12.9 0.00 0.00 0.00 81 1008.6
20260505174504 25 192 6.4 12.9 0.00 0.00 0.00 82 1008.7
20260505174005 25 203 8.0 14.5 0.00 0.00 0.00 82 1008.7
20260505173504 25 197 8.0 14.5 0.00 0.00 0.00 83 1008.9
20260505173005 25 188 6.4 12.9 0.00 0.00 0.00 82 1008.8
20260505172504 25 187 6.4 12.9 0.00 0.00 0.00 82 1008.8
20260505172005 25 193 8.0 14.5 0.00 0.00 0.00 83 1008.8
20260505171504 25 196 8.0 14.5 0.00 0.00 0.00 83 1008.8
20260505171004 25 197 8.0 19.3 0.00 0.00 0.00 83 1008.8
20260505170504 25 195 9.7 19.3 0.00 0.00 0.00 83 1008.9
20260505170004 25 199 8.0 14.5 0.00 0.00 0.00 84 1008.9
20260505165525 25 210 9.7 16.1 0.00 0.00 0.00 84 1009.0
20260505165004 24 211 9.7 17.7 0.00 0.00 0.00 84 1009.0
20260505164505 24 210 11.3 19.3 0.00 0.00 0.00 84 1009.0
20260505164025 24 210 11.3 19.3 0.00 0.00 0.00 84 1009.0
20260505163504 24 206 9.7 16.1 0.00 0.00 0.00 84 1008.9
20260505163025 24 201 9.7 16.1 0.00 0.00 0.00 85 1008.9
20260505162504 24 203 9.7 17.7 0.00 0.00 0.00 85 1008.9
20260505162025 24 209 9.7 17.7 0.00 0.00 0.00 86 1008.9
20260505161505 23 211 9.7 16.1 0.00 0.00 0.00 86 1009.0
20260505161004 23 210 9.7 17.7 0.00 0.00 0.00 87 1008.8
20260505160526 23 212 9.7 17.7 0.00 0.00 0.00 87 1008.8
20260505153005 23 217 9.7 19.3 0.00 0.00 0.00 88 1008.8
20260505152504 23 211 9.7 19.3 0.00 0.00 0.00 88 1008.8
20260505152006 23 207 8.0 17.7 0.00 0.00 0.00 88 1008.8
20260505151504 23 203 8.0 16.1 0.00 0.00 0.00 89 1008.8
20260505151004 22 206 9.7 16.1 0.00 0.00 0.00 89 1008.8
20260505150504 22 213 8.0 17.7 0.00 0.00 0.00 89 1008.9
20260505140505 21 212 9.7 20.9 0.00 0.00 0.00 92 1008.8
20260505125004 21 201 9.7 19.3 0.00 0.00 0.00 91 1008.5
20260505124504 21 198 9.7 19.3 0.00 0.00 0.00 91 1008.3
20260505124004 21 201 9.7 16.1 0.00 0.00 0.00 91 1008.4
20260505123504 21 198 11.3 20.9 0.00 0.00 0.00 91 1008.3
20260505123004 21 199 11.3 20.9 0.00 0.00 0.00 91 1008.2
20260505122505 21 203 9.7 22.5 0.00 0.00 0.00 91 1008.2
20260505122026 21 207 11.3 22.5 0.00 0.00 0.00 91 1008.1
20260505121504 21 203 11.3 19.3 0.00 0.00 0.00 91 1008.1
20260505121004 21 205 11.3 19.3 0.00 0.00 0.00 91 1008.1
20260505120504 21 205 11.3 19.3 0.00 0.00 0.00 91 1007.9
20260505120006 21 201 11.3 20.9 0.00 0.00 0.00 91 1007.8
20260505115525 21 200 12.9 22.5 0.00 0.00 0.00 91 1007.8
20260505115004 21 197 12.9 22.5 0.00 0.00 0.00 91 1007.8
20260505114504 21 194 11.3 22.5 0.00 0.00 0.00 91 1007.8
20260505114004 21 196 9.7 22.5 0.00 0.00 0.00 91 1007.7
20260505113505 21 199 9.7 17.7 0.00 0.00 0.00 91 1007.7
20260505113004 21 204 11.3 24.1 0.00 0.00 0.00 91 1007.7
20260505112504 21 202 12.9 25.7 0.00 0.00 0.00 91 1007.6
20260505112004 21 200 11.3 25.7 0.00 0.00 0.00 91 1007.6
20260505111504 21 200 11.3 29.0 0.00 0.00 0.00 91 1007.7
20260505111004 21 198 12.9 29.0 0.00 0.00 0.00 91 1007.7
20260505110504 21 199 11.3 17.7 0.00 0.00 0.00 91 1007.6